| time (UTC) | temp F | wind direction | speed knots | gust knots | rain 1hr in | rain 24hr in | rain mn in | humidity % | barometer mb |
| 20260510224540 | 42 | 352 | 1.7 | 7.0 | 0.00 | 0.21 | 0.00 | 66 | 1005.1 |
| 20260510224033 | 43 | 6 | 1.7 | 5.2 | 0.00 | 0.21 | 0.00 | 65 | 1005.1 |
| 20260510223533 | 43 | 6 | 2.6 | 7.0 | 0.00 | 0.21 | 0.00 | 65 | 1005.1 |
| 20260510223038 | 43 | 345 | 3.5 | 7.0 | 0.00 | 0.21 | 0.00 | 63 | 1005.2 |
| 20260510222534 | 43 | 334 | 3.5 | 7.0 | 0.00 | 0.21 | 0.00 | 63 | 1005.2 |
| 20260510222034 | 43 | 330 | 4.3 | 7.0 | 0.00 | 0.21 | 0.00 | 63 | 1005.2 |
| 20260510221550 | 43 | 335 | 3.5 | 6.1 | 0.00 | 0.21 | 0.00 | 65 | 1005.2 |
| 20260510221034 | 43 | 352 | 3.5 | 7.0 | 0.00 | 0.21 | 0.00 | 64 | 1005.2 |
| 20260510220534 | 44 | 342 | 4.3 | 7.0 | 0.00 | 0.21 | 0.00 | 63 | 1005.3 |
| 20260510220042 | 44 | 15 | 3.5 | 6.1 | 0.00 | 0.21 | 0.00 | 65 | 1005.3 |
| 20260510215536 | 43 | 333 | 4.3 | 7.0 | 0.00 | 0.21 | 0.21 | 70 | 1005.3 |
| 20260510215033 | 44 | 28 | 4.3 | 8.7 | 0.00 | 0.21 | 0.21 | 69 | 1005.4 |
| 20260510214544 | 42 | 342 | 5.2 | 8.7 | 0.00 | 0.21 | 0.21 | 75 | 1005.3 |
| 20260510214035 | 42 | 8 | 2.6 | 4.3 | 0.00 | 0.21 | 0.21 | 78 | 1005.4 |
| 20260510213535 | 41 | 0 | 0.0 | 0.0 | 0.00 | 0.21 | 0.21 | 81 | 1005.4 |
| 20260510213039 | 41 | 0 | 0.0 | 0.0 | 0.00 | 0.21 | 0.21 | 85 | 1005.5 |
| 20260510212533 | 41 | 0 | 0.0 | 0.0 | 0.00 | 0.21 | 0.21 | 86 | 1005.5 |
| 20260510212033 | 41 | 0 | 0.0 | 0.0 | 0.00 | 0.21 | 0.21 | 86 | 1005.6 |
| 20260510211538 | 41 | 0 | 0.0 | 0.0 | 0.00 | 0.21 | 0.21 | 86 | 1005.6 |
| 20260510211034 | 41 | 0 | 0.0 | 0.0 | 0.00 | 0.21 | 0.21 | 86 | 1005.6 |
| 20260510210535 | 41 | 0 | 0.0 | 0.0 | 0.00 | 0.21 | 0.21 | 85 | 1005.5 |
| 20260510210038 | 42 | 0 | 0.0 | 0.0 | 0.00 | 0.21 | 0.21 | 85 | 1005.7 |
| 20260510205533 | 41 | 0 | 0.0 | 0.0 | 0.00 | 0.21 | 0.21 | 85 | 1005.6 |
| 20260510205036 | 41 | 0 | 0.0 | 0.0 | 0.00 | 0.21 | 0.21 | 84 | 1005.8 |
| 20260510204540 | 42 | 0 | 0.0 | 0.0 | 0.00 | 0.21 | 0.21 | 84 | 1005.7 |
| 20260510204037 | 42 | 0 | 0.0 | 0.0 | 0.00 | 0.21 | 0.21 | 84 | 1005.7 |
| 20260510203534 | 42 | 0 | 0.0 | 0.0 | 0.00 | 0.21 | 0.21 | 83 | 1005.7 |
| 20260510203040 | 42 | 0 | 0.0 | 0.0 | 0.00 | 0.21 | 0.21 | 83 | 1005.9 |
| 20260510202535 | 43 | 0 | 0.0 | 0.0 | 0.00 | 0.21 | 0.21 | 82 | 1005.9 |
| 20260510202034 | 43 | 0 | 0.0 | 0.0 | 0.00 | 0.21 | 0.21 | 82 | 1005.9 |
| 20260510201547 | 44 | 0 | 0.0 | 1.7 | 0.00 | 0.21 | 0.21 | 81 | 1006.0 |
| 20260510201033 | 44 | 0 | 0.0 | 3.5 | 0.00 | 0.21 | 0.21 | 81 | 1006.0 |
| 20260510200534 | 44 | 165 | 0.0 | 3.5 | 0.00 | 0.21 | 0.21 | 81 | 1006.2 |
| 20260510200106 | 44 | 188 | 0.9 | 3.5 | 0.00 | 0.21 | 0.21 | 80 | 1006.2 |
| 20260510195533 | 44 | 105 | 0.9 | 3.5 | 0.00 | 0.21 | 0.21 | 79 | 1006.3 |
| 20260510195033 | 44 | 134 | 0.9 | 3.5 | 0.00 | 0.21 | 0.21 | 79 | 1006.2 |
| 20260510194554 | 45 | 148 | 1.7 | 2.6 | 0.00 | 0.21 | 0.21 | 79 | 1006.3 |
| 20260510194035 | 45 | 140 | 0.9 | 2.6 | 0.00 | 0.21 | 0.21 | 79 | 1006.3 |
| 20260510193533 | 45 | 162 | 0.0 | 2.6 | 0.00 | 0.21 | 0.21 | 79 | 1006.4 |
| 20260510193046 | 45 | 0 | 0.0 | 1.7 | 0.00 | 0.21 | 0.21 | 78 | 1006.4 |
| 20260510192533 | 45 | 149 | 0.0 | 0.9 | 0.00 | 0.21 | 0.21 | 78 | 1006.3 |
| 20260510192034 | 45 | 0 | 0.0 | 1.7 | 0.00 | 0.21 | 0.21 | 77 | 1006.3 |
| 20260510191555 | 46 | 0 | 0.0 | 2.6 | 0.00 | 0.21 | 0.21 | 77 | 1006.4 |
| 20260510191034 | 46 | 103 | 0.9 | 2.6 | 0.00 | 0.21 | 0.21 | 77 | 1006.2 |
| 20260510190535 | 46 | 141 | 0.9 | 4.3 | 0.00 | 0.21 | 0.21 | 76 | 1006.4 |
| 20260510190040 | 46 | 169 | 1.7 | 5.2 | 0.00 | 0.21 | 0.21 | 76 | 1006.3 |
| 20260510185535 | 47 | 217 | 2.6 | 7.0 | 0.00 | 0.21 | 0.21 | 76 | 1006.4 |
| 20260510185034 | 47 | 179 | 3.5 | 7.0 | 0.00 | 0.21 | 0.21 | 75 | 1006.5 |
| 20260510184544 | 47 | 207 | 5.2 | 7.0 | 0.00 | 0.21 | 0.21 | 74 | 1006.5 |
| 20260510184033 | 47 | 211 | 4.3 | 6.1 | 0.00 | 0.21 | 0.21 | 74 | 1006.5 |
| 20260510183535 | 47 | 219 | 3.5 | 6.1 | 0.00 | 0.21 | 0.21 | 73 | 1006.6 |
| 20260510183053 | 48 | 188 | 3.5 | 7.0 | 0.00 | 0.21 | 0.21 | 73 | 1006.6 |
| 20260510182533 | 48 | 169 | 3.5 | 7.0 | 0.00 | 0.21 | 0.21 | 72 | 1006.6 |
| 20260510182037 | 48 | 207 | 1.7 | 6.1 | 0.00 | 0.21 | 0.21 | 71 | 1006.6 |
| 20260510181544 | 48 | 152 | 2.6 | 6.1 | 0.00 | 0.21 | 0.21 | 70 | 1006.6 |
| 20260510181035 | 49 | 109 | 1.7 | 6.1 | 0.00 | 0.21 | 0.21 | 70 | 1006.7 |
| 20260510180533 | 49 | 160 | 1.7 | 6.1 | 0.00 | 0.21 | 0.21 | 69 | 1006.6 |
| 20260510180044 | 48 | 218 | 1.7 | 6.1 | 0.00 | 0.21 | 0.21 | 70 | 1006.6 |
| 20260510175534 | 48 | 190 | 2.6 | 7.0 | 0.00 | 0.21 | 0.21 | 71 | 1006.7 |
| 20260510175034 | 48 | 200 | 2.6 | 7.0 | 0.00 | 0.21 | 0.21 | 69 | 1006.9 |
| 20260510174544 | 48 | 159 | 2.6 | 7.8 | 0.00 | 0.21 | 0.21 | 68 | 1006.9 |
| 20260510174034 | 48 | 207 | 4.3 | 7.8 | 0.00 | 0.21 | 0.21 | 69 | 1006.9 |
| 20260510173533 | 48 | 209 | 2.6 | 7.8 | 0.00 | 0.21 | 0.21 | 67 | 1007.0 |
| 20260510173047 | 48 | 222 | 4.3 | 9.6 | 0.00 | 0.21 | 0.21 | 69 | 1007.1 |
| 20260510172534 | 48 | 154 | 4.3 | 9.6 | 0.00 | 0.21 | 0.21 | 69 | 1007.1 |
| 20260510172035 | 49 | 205 | 6.1 | 9.6 | 0.00 | 0.21 | 0.21 | 66 | 1007.2 |
| 20260510171553 | 49 | 207 | 4.3 | 12.2 | 0.00 | 0.21 | 0.21 | 66 | 1007.2 |
| 20260510171033 | 49 | 264 | 6.1 | 12.2 | 0.00 | 0.21 | 0.21 | 67 | 1007.3 |
| 20260510170533 | 49 | 221 | 9.6 | 12.2 | 0.00 | 0.21 | 0.21 | 66 | 1007.4 |
| 20260510170045 | 51 | 219 | 5.2 | 8.7 | 0.00 | 0.21 | 0.21 | 66 | 1007.2 |
| 20260510165533 | 51 | 231 | 2.6 | 8.7 | 0.00 | 0.21 | 0.21 | 70 | 1007.4 |
| 20260510165033 | 51 | 198 | 3.5 | 8.7 | 0.00 | 0.21 | 0.21 | 68 | 1007.4 |
| 20260510164547 | 50 | 212 | 1.7 | 6.1 | 0.00 | 0.21 | 0.21 | 70 | 1007.4 |
| 20260510164033 | 50 | 200 | 1.7 | 6.1 | 0.00 | 0.21 | 0.21 | 70 | 1007.5 |
| 20260510163534 | 49 | 205 | 2.6 | 7.0 | 0.00 | 0.21 | 0.21 | 72 | 1007.7 |
| 20260510163043 | 48 | 163 | 2.6 | 11.3 | 0.00 | 0.21 | 0.21 | 71 | 1007.7 |
| 20260510162533 | 48 | 145 | 4.3 | 11.3 | 0.00 | 0.21 | 0.21 | 71 | 1007.7 |
| 20260510162032 | 48 | 247 | 4.3 | 11.3 | 0.00 | 0.21 | 0.21 | 71 | 1007.8 |
| 20260510161539 | 49 | 172 | 4.3 | 9.6 | 0.00 | 0.21 | 0.21 | 70 | 1007.9 |
| 20260510161033 | 49 | 167 | 1.7 | 9.6 | 0.00 | 0.21 | 0.21 | 71 | 1008.1 |
| 20260510160535 | 50 | 188 | 5.2 | 11.3 | 0.00 | 0.21 | 0.21 | 69 | 1008.1 |
| 20260510160049 | 50 | 179 | 7.0 | 11.3 | 0.00 | 0.21 | 0.21 | 72 | 1008.2 |
| 20260510155533 | 49 | 184 | 7.8 | 11.3 | 0.00 | 0.21 | 0.21 | 71 | 1008.3 |
| 20260510155033 | 48 | 172 | 6.1 | 18.2 | 0.00 | 0.21 | 0.21 | 71 | 1008.3 |
| 20260510154546 | 49 | 160 | 7.8 | 18.2 | 0.00 | 0.21 | 0.21 | 71 | 1008.4 |
| 20260510154036 | 49 | 140 | 9.6 | 18.2 | 0.00 | 0.21 | 0.21 | 70 | 1008.4 |
| 20260510153535 | 50 | 221 | 4.3 | 13.9 | 0.00 | 0.21 | 0.21 | 72 | 1008.5 |
| 20260510153045 | 49 | 199 | 7.8 | 13.9 | 0.00 | 0.21 | 0.21 | 75 | 1008.4 |
| 20260510152536 | 50 | 174 | 8.7 | 15.6 | 0.00 | 0.21 | 0.21 | 75 | 1008.5 |
| 20260510152035 | 50 | 214 | 7.8 | 15.6 | 0.00 | 0.21 | 0.21 | 73 | 1008.6 |
| 20260510151544 | 49 | 202 | 8.7 | 13.0 | 0.00 | 0.21 | 0.21 | 75 | 1008.7 |
| 20260510151033 | 49 | 224 | 9.6 | 13.0 | 0.00 | 0.21 | 0.21 | 74 | 1008.8 |
| 20260510150533 | 49 | 212 | 8.7 | 13.0 | 0.00 | 0.21 | 0.21 | 72 | 1008.8 |
| 20260510150044 | 49 | 208 | 8.7 | 13.0 | 0.00 | 0.21 | 0.21 | 70 | 1008.9 |
| 20260510145533 | 50 | 221 | 7.8 | 13.0 | 0.00 | 0.21 | 0.21 | 72 | 1008.9 |
| 20260510145034 | 50 | 236 | 7.8 | 13.0 | 0.00 | 0.21 | 0.21 | 74 | 1008.8 |
| 20260510144548 | 50 | 188 | 7.8 | 10.4 | 0.00 | 0.21 | 0.21 | 69 | 1008.9 |
| 20260510144034 | 51 | 226 | 7.8 | 10.4 | 0.00 | 0.21 | 0.21 | 63 | 1008.9 |
| 20260510143535 | 51 | 221 | 4.3 | 8.7 | 0.00 | 0.21 | 0.21 | 64 | 1009.0 |
| 20260510143039 | 51 | 209 | 5.2 | 8.7 | 0.00 | 0.21 | 0.21 | 64 | 1009.0 |
| 20260510142533 | 51 | 217 | 4.3 | 7.8 | 0.00 | 0.21 | 0.21 | 61 | 1009.1 |
| 20260510142035 | 50 | 0 | 1.7 | 6.1 | 0.00 | 0.21 | 0.21 | 63 | 1009.2 |
| 20260510141554 | 50 | 172 | 2.6 | 7.0 | 0.00 | 0.21 | 0.21 | 66 | 1009.2 |
| 20260510141034 | 51 | 169 | 3.5 | 7.0 | 0.00 | 0.21 | 0.21 | 63 | 1009.2 |
| 20260510140533 | 52 | 235 | 2.6 | 7.8 | 0.00 | 0.21 | 0.21 | 64 | 1009.3 |
| 20260510140049 | 51 | 153 | 2.6 | 7.8 | 0.00 | 0.21 | 0.21 | 65 | 1009.4 |
| 20260510135533 | 51 | 146 | 3.5 | 7.8 | 0.00 | 0.21 | 0.21 | 64 | 1009.5 |
| 20260510135033 | 50 | 121 | 2.6 | 5.2 | 0.00 | 0.21 | 0.21 | 64 | 1009.7 |
| 20260510134544 | 50 | 136 | 2.6 | 5.2 | 0.00 | 0.21 | 0.21 | 65 | 1009.7 |
| 20260510134033 | 50 | 142 | 1.7 | 5.2 | 0.00 | 0.21 | 0.21 | 63 | 1009.8 |
| 20260510133533 | 50 | 225 | 0.9 | 4.3 | 0.00 | 0.21 | 0.21 | 63 | 1009.8 |
| 20260510133100 | 50 | 165 | 0.0 | 4.3 | 0.00 | 0.21 | 0.21 | 64 | 1009.9 |
| 20260510132533 | 50 | 143 | 0.9 | 8.7 | 0.00 | 0.21 | 0.21 | 65 | 1010.0 |
| 20260510132034 | 50 | 198 | 3.5 | 8.7 | 0.00 | 0.21 | 0.21 | 64 | 1010.0 |
| 20260510131600 | 50 | 215 | 6.1 | 9.6 | 0.00 | 0.21 | 0.21 | 63 | 1010.0 |
| 20260510131034 | 51 | 188 | 1.7 | 9.6 | 0.00 | 0.21 | 0.21 | 63 | 1010.1 |
| 20260510130534 | 52 | 129 | 4.3 | 9.6 | 0.00 | 0.21 | 0.21 | 65 | 1010.1 |
| 20260510130038 | 52 | 208 | 1.7 | 3.5 | 0.00 | 0.21 | 0.21 | 65 | 1010.3 |
| 20260510125533 | 51 | 136 | 0.0 | 3.5 | 0.00 | 0.21 | 0.21 | 63 | 1010.1 |
| 20260510125033 | 49 | 295 | 0.0 | 7.0 | 0.00 | 0.21 | 0.21 | 66 | 1010.2 |
| 20260510124546 | 49 | 264 | 1.7 | 7.0 | 0.00 | 0.21 | 0.21 | 66 | 1010.3 |
| 20260510124033 | 50 | 165 | 1.7 | 7.0 | 0.00 | 0.21 | 0.21 | 62 | 1010.3 |
| 20260510123534 | 50 | 160 | 0.0 | 4.3 | 0.00 | 0.21 | 0.21 | 63 | 1010.4 |
| 20260510123057 | 51 | 214 | 0.9 | 5.2 | 0.00 | 0.21 | 0.21 | 62 | 1010.4 |
| 20260510122534 | 51 | 227 | 1.7 | 5.2 | 0.00 | 0.21 | 0.21 | 65 | 1010.6 |
| 20260510122036 | 51 | 206 | 0.9 | 3.5 | 0.00 | 0.21 | 0.21 | 71 | 1010.7 |
| 20260510121543 | 49 | 0 | 1.7 | 4.3 | 0.00 | 0.21 | 0.21 | 68 | 1010.8 |
| 20260510121034 | 50 | 222 | 0.9 | 4.3 | 0.00 | 0.21 | 0.21 | 63 | 1010.8 |
| 20260510120533 | 50 | 0 | 0.9 | 6.1 | 0.00 | 0.21 | 0.21 | 68 | 1010.9 |
| 20260510120043 | 50 | 173 | 2.6 | 7.0 | 0.00 | 0.21 | 0.21 | 67 | 1011.0 |
| 20260510115536 | 50 | 208 | 3.5 | 7.0 | 0.00 | 0.21 | 0.21 | 72 | 1011.0 |
| 20260510115033 | 50 | 176 | 2.6 | 6.1 | 0.00 | 0.21 | 0.21 | 68 | 1011.0 |
| 20260510114539 | 50 | 0 | 0.0 | 4.3 | 0.00 | 0.21 | 0.21 | 68 | 1011.2 |
| 20260510114036 | 50 | 0 | 1.7 | 4.3 | 0.00 | 0.21 | 0.21 | 65 | 1011.2 |
| 20260510113533 | 49 | 159 | 0.0 | 7.8 | 0.00 | 0.21 | 0.21 | 71 | 1011.3 |
| 20260510113046 | 49 | 107 | 4.3 | 7.8 | 0.00 | 0.21 | 0.21 | 68 | 1011.4 |
| 20260510112533 | 49 | 131 | 0.9 | 6.1 | 0.00 | 0.21 | 0.21 | 69 | 1011.5 |
| 20260510112034 | 49 | 136 | 0.0 | 4.3 | 0.00 | 0.21 | 0.21 | 68 | 1011.7 |
| 20260510111544 | 49 | 301 | 1.7 | 4.3 | 0.00 | 0.21 | 0.21 | 69 | 1011.8 |
| 20260510111033 | 48 | 0 | 0.0 | 3.5 | 0.00 | 0.21 | 0.21 | 71 | 1012.0 |
| 20260510110534 | 48 | 316 | 0.9 | 3.5 | 0.00 | 0.21 | 0.21 | 72 | 1012.0 |
| 20260510110045 | 48 | 0 | 0.0 | 3.5 | 0.00 | 0.21 | 0.21 | 70 | 1012.0 |
| 20260510105533 | 47 | 0 | 0.9 | 5.2 | 0.00 | 0.21 | 0.21 | 74 | 1012.1 |
| 20260510105033 | 47 | 0 | 0.0 | 5.2 | 0.00 | 0.21 | 0.21 | 71 | 1012.1 |
| 20260510104544 | 46 | 0 | 0.0 | 4.3 | 0.00 | 0.21 | 0.21 | 72 | 1012.3 |
| 20260510104033 | 47 | 45 | 0.0 | 7.0 | 0.00 | 0.21 | 0.21 | 75 | 1012.3 |
| 20260510103533 | 47 | 321 | 2.6 | 7.0 | 0.00 | 0.21 | 0.21 | 72 | 1012.4 |
| 20260510103043 | 47 | 115 | 0.0 | 7.0 | 0.00 | 0.21 | 0.21 | 78 | 1012.4 |
| 20260510102534 | 46 | 0 | 0.0 | 7.0 | 0.00 | 0.21 | 0.21 | 76 | 1012.5 |
| 20260510102034 | 45 | 345 | 2.6 | 7.0 | 0.00 | 0.21 | 0.21 | 82 | 1012.5 |
| 20260510101540 | 44 | 0 | 1.7 | 5.2 | 0.00 | 0.21 | 0.21 | 80 | 1012.6 |
| 20260510101032 | 44 | 322 | 0.0 | 6.1 | 0.00 | 0.21 | 0.21 | 81 | 1012.9 |
| 20260510100534 | 44 | 0 | 0.9 | 6.1 | 0.00 | 0.21 | 0.21 | 82 | 1012.7 |
| 20260510100035 | 44 | 351 | 3.5 | 6.1 | 0.00 | 0.21 | 0.21 | 80 | 1012.9 |
| 20260510095534 | 44 | 337 | 0.9 | 5.2 | 0.00 | 0.21 | 0.21 | 82 | 1013.0 |
| 20260510095033 | 44 | 338 | 0.9 | 5.2 | 0.00 | 0.21 | 0.21 | 82 | 1013.0 |
| 20260510094546 | 44 | 323 | 0.9 | 5.2 | 0.00 | 0.21 | 0.21 | 82 | 1013.0 |
| 20260510094033 | 44 | 324 | 2.6 | 7.8 | 0.00 | 0.21 | 0.21 | 86 | 1013.0 |
| 20260510093533 | 44 | 335 | 3.5 | 7.8 | 0.00 | 0.21 | 0.21 | 83 | 1013.1 |
| 20260510093042 | 43 | 0 | 0.0 | 5.2 | 0.00 | 0.21 | 0.21 | 85 | 1013.2 |
| 20260510092536 | 43 | 0 | 0.0 | 5.2 | 0.00 | 0.21 | 0.21 | 85 | 1013.2 |
| 20260510092034 | 43 | 0 | 1.7 | 6.1 | 0.00 | 0.21 | 0.21 | 85 | 1013.2 |
| 20260510091540 | 43 | 338 | 0.0 | 6.1 | 0.00 | 0.21 | 0.21 | 84 | 1013.4 |
| 20260510091033 | 43 | 335 | 1.7 | 6.1 | 0.00 | 0.21 | 0.21 | 88 | 1013.3 |
| 20260510090534 | 41 | 319 | 2.6 | 8.7 | 0.01 | 0.21 | 0.21 | 88 | 1013.5 |
| 20260510090042 | 41 | 338 | 4.3 | 8.7 | 0.00 | 0.20 | 0.20 | 88 | 1013.6 |
| 20260510085533 | 40 | 340 | 5.2 | 9.6 | 0.00 | 0.20 | 0.20 | 88 | 1013.6 |
| 20260510085033 | 40 | 342 | 5.2 | 9.6 | 0.01 | 0.20 | 0.20 | 88 | 1013.7 |
| 20260510084540 | 40 | 359 | 1.7 | 7.8 | 0.01 | 0.20 | 0.20 | 89 | 1013.7 |
| 20260510084033 | 40 | 360 | 0.9 | 7.8 | 0.02 | 0.20 | 0.20 | 89 | 1013.8 |
| 20260510083535 | 40 | 1 | 3.5 | 7.8 | 0.02 | 0.20 | 0.20 | 90 | 1013.8 |
| 20260510083039 | 40 | 359 | 2.6 | 6.1 | 0.03 | 0.20 | 0.20 | 90 | 1013.8 |
| 20260510082534 | 39 | 12 | 2.6 | 7.0 | 0.03 | 0.20 | 0.20 | 90 | 1013.9 |
| 20260510082032 | 39 | 324 | 2.6 | 7.0 | 0.04 | 0.20 | 0.20 | 90 | 1014.0 |
| 20260510081544 | 39 | 292 | 4.3 | 7.0 | 0.05 | 0.20 | 0.20 | 90 | 1014.1 |
| 20260510081034 | 39 | 333 | 3.5 | 7.0 | 0.06 | 0.20 | 0.20 | 90 | 1014.2 |
| 20260510080533 | 39 | 345 | 2.6 | 7.8 | 0.06 | 0.19 | 0.19 | 90 | 1014.2 |
| 20260510080038 | 38 | 338 | 3.5 | 7.8 | 0.06 | 0.19 | 0.19 | 90 | 1014.3 |
| 20260510075535 | 38 | 6 | 4.3 | 7.8 | 0.06 | 0.18 | 0.18 | 90 | 1014.3 |
| 20260510075035 | 38 | 318 | 2.6 | 9.6 | 0.06 | 0.18 | 0.18 | 91 | 1014.4 |
| 20260510074543 | 38 | 325 | 5.2 | 9.6 | 0.07 | 0.18 | 0.18 | 91 | 1014.5 |
| 20260510074035 | 38 | 316 | 3.5 | 7.0 | 0.06 | 0.18 | 0.18 | 91 | 1014.4 |
| 20260510073535 | 38 | 340 | 3.5 | 7.0 | 0.06 | 0.18 | 0.18 | 91 | 1014.4 |
| 20260510073101 | 38 | 328 | 4.3 | 7.0 | 0.06 | 0.17 | 0.17 | 91 | 1014.4 |
| 20260510072533 | 38 | 343 | 3.5 | 8.7 | 0.05 | 0.16 | 0.16 | 91 | 1014.4 |
| 20260510072035 | 38 | 340 | 4.3 | 8.7 | 0.05 | 0.15 | 0.15 | 91 | 1014.4 |
| 20260510071542 | 38 | 331 | 3.5 | 6.1 | 0.05 | 0.14 | 0.14 | 91 | 1014.5 |
| 20260510071032 | 38 | 342 | 3.5 | 5.2 | 0.04 | 0.14 | 0.14 | 91 | 1014.6 |
| 20260510070532 | 38 | 307 | 2.6 | 6.1 | 0.04 | 0.13 | 0.13 | 91 | 1014.6 |
| 20260510070051 | 38 | 338 | 3.5 | 7.8 | 0.05 | 0.13 | 0.13 | 91 | 1014.7 |
| 20260510065536 | 38 | 6 | 3.5 | 7.8 | 0.04 | 0.12 | 0.12 | 91 | 1014.7 |
| 20260510065037 | 38 | 330 | 3.5 | 9.6 | 0.05 | 0.12 | 0.12 | 91 | 1014.6 |
| 20260510064553 | 38 | 356 | 2.6 | 9.6 | 0.05 | 0.11 | 0.11 | 91 | 1014.7 |
| 20260510064033 | 38 | 321 | 5.2 | 9.6 | 0.05 | 0.11 | 0.11 | 91 | 1014.7 |
| 20260510063532 | 38 | 326 | 3.5 | 9.6 | 0.05 | 0.11 | 0.11 | 91 | 1014.7 |
| 20260510063047 | 38 | 334 | 5.2 | 9.6 | 0.05 | 0.11 | 0.11 | 91 | 1014.8 |
| 20260510062533 | 38 | 297 | 2.6 | 6.1 | 0.04 | 0.10 | 0.10 | 91 | 1014.7 |
| 20260510062033 | 38 | 330 | 4.3 | 6.1 | 0.04 | 0.10 | 0.10 | 91 | 1014.9 |
| 20260510061546 | 38 | 1 | 3.5 | 7.0 | 0.03 | 0.09 | 0.09 | 90 | 1014.8 |
| 20260510061033 | 39 | 342 | 4.3 | 7.0 | 0.04 | 0.09 | 0.09 | 90 | 1014.9 |
| 20260510060534 | 39 | 347 | 3.5 | 7.0 | 0.03 | 0.08 | 0.08 | 91 | 1014.7 |
| 20260510060042 | 39 | 330 | 4.3 | 8.7 | 0.03 | 0.07 | 0.07 | 90 | 1014.8 |
| 20260510055533 | 39 | 310 | 4.3 | 8.7 | 0.03 | 0.07 | 0.07 | 90 | 1014.8 |
| 20260510055036 | 39 | 330 | 5.2 | 7.8 | 0.03 | 0.07 | 0.07 | 91 | 1014.8 |
| 20260510054539 | 39 | 355 | 3.5 | 7.8 | 0.03 | 0.06 | 0.06 | 91 | 1014.8 |
| 20260510054035 | 39 | 326 | 3.5 | 7.8 | 0.03 | 0.06 | 0.06 | 91 | 1014.8 |
| 20260510053532 | 39 | 349 | 5.2 | 7.8 | 0.02 | 0.05 | 0.05 | 91 | 1014.7 |
| 20260510053047 | 39 | 339 | 3.5 | 9.6 | 0.02 | 0.05 | 0.05 | 91 | 1014.7 |
| 20260510052533 | 40 | 331 | 5.2 | 9.6 | 0.03 | 0.05 | 0.05 | 91 | 1014.8 |
| 20260510052035 | 40 | 4 | 3.5 | 7.0 | 0.03 | 0.05 | 0.05 | 91 | 1014.8 |
| 20260510051548 | 40 | 22 | 4.3 | 7.0 | 0.02 | 0.04 | 0.04 | 91 | 1014.7 |
| 20260510051037 | 40 | 15 | 3.5 | 9.6 | 0.02 | 0.04 | 0.04 | 91 | 1014.9 |
| 20260510050535 | 40 | 357 | 3.5 | 9.6 | 0.02 | 0.04 | 0.04 | 91 | 1014.9 |
| 20260510050046 | 40 | 351 | 2.6 | 5.2 | 0.03 | 0.04 | 0.04 | 91 | 1015.0 |
| 20260510045533 | 40 | 333 | 2.6 | 4.3 | 0.02 | 0.03 | 0.03 | 91 | 1015.0 |
| 20260510045035 | 40 | 347 | 1.7 | 7.8 | 0.02 | 0.03 | 0.03 | 91 | 1015.1 |
| 20260510044549 | 40 | 356 | 3.5 | 7.8 | 0.01 | 0.03 | 0.03 | 90 | 1015.2 |
| 20260510044033 | 40 | 338 | 3.5 | 7.0 | 0.02 | 0.03 | 0.03 | 90 | 1015.2 |
| 20260510043533 | 40 | 11 | 3.5 | 6.1 | 0.02 | 0.03 | 0.03 | 90 | 1015.1 |
| 20260510043041 | 40 | 15 | 3.5 | 6.1 | 0.02 | 0.03 | 0.03 | 90 | 1015.2 |
| 20260510042532 | 40 | 333 | 3.5 | 7.0 | 0.02 | 0.02 | 0.02 | 90 | 1015.2 |
| 20260510042032 | 40 | 331 | 4.3 | 7.8 | 0.02 | 0.02 | 0.02 | 90 | 1015.2 |
| 20260510041550 | 40 | 349 | 4.3 | 8.7 | 0.02 | 0.02 | 0.02 | 89 | 1015.3 |
| 20260510041033 | 40 | 344 | 5.2 | 8.7 | 0.02 | 0.02 | 0.02 | 89 | 1015.3 |
| 20260510040533 | 40 | 358 | 4.3 | 7.8 | 0.02 | 0.02 | 0.02 | 89 | 1015.4 |
| 20260510040053 | 41 | 334 | 4.3 | 7.8 | 0.01 | 0.01 | 0.01 | 89 | 1015.4 |
| 20260510035532 | 41 | 355 | 4.3 | 7.8 | 0.01 | 0.01 | 0.01 | 89 | 1015.5 |
| 20260510035032 | 41 | 350 | 4.3 | 7.8 | 0.01 | 0.01 | 0.01 | 89 | 1015.5 |
| 20260510034538 | 41 | 343 | 4.3 | 7.8 | 0.01 | 0.01 | 0.01 | 89 | 1015.6 |
| 20260510034033 | 41 | 345 | 2.6 | 7.8 | 0.00 | 0.00 | 0.00 | 88 | 1015.7 |
| 20260510033533 | 41 | 342 | 3.5 | 8.7 | 0.00 | 0.00 | 0.00 | 88 | 1015.7 |
| 20260510033047 | 41 | 22 | 4.3 | 8.7 | 0.00 | 0.00 | 0.00 | 88 | 1015.6 |
| 20260510032536 | 41 | 353 | 4.3 | 7.0 | 0.00 | 0.00 | 0.00 | 88 | 1015.8 |
| 20260510032036 | 42 | 330 | 4.3 | 7.0 | 0.00 | 0.00 | 0.00 | 88 | 1015.9 |
| 20260510031551 | 42 | 337 | 4.3 | 7.0 | 0.00 | 0.00 | 0.00 | 89 | 1016.0 |
| 20260510031034 | 42 | 27 | 3.5 | 6.1 | 0.00 | 0.00 | 0.00 | 89 | 1016.0 |
| 20260510030533 | 42 | 335 | 2.6 | 6.1 | 0.00 | 0.00 | 0.00 | 89 | 1016.0 |
| 20260510030043 | 42 | 346 | 3.5 | 5.2 | 0.00 | 0.00 | 0.00 | 89 | 1016.0 |
| 20260510025533 | 42 | 325 | 3.5 | 5.2 | 0.00 | 0.00 | 0.00 | 89 | 1016.0 |
| 20260510025035 | 42 | 343 | 3.5 | 7.0 | 0.00 | 0.00 | 0.00 | 89 | 1016.2 |
| 20260510024541 | 42 | 339 | 3.5 | 7.0 | 0.00 | 0.00 | 0.00 | 89 | 1016.2 |
| 20260510024033 | 42 | 325 | 3.5 | 7.0 | 0.00 | 0.00 | 0.00 | 89 | 1016.1 |
| 20260510023534 | 42 | 357 | 3.5 | 7.0 | 0.00 | 0.00 | 0.00 | 89 | 1016.1 |
| 20260510023039 | 42 | 335 | 3.5 | 7.0 | 0.00 | 0.00 | 0.00 | 89 | 1016.3 |
| 20260510022533 | 42 | 326 | 4.3 | 7.0 | 0.00 | 0.00 | 0.00 | 90 | 1016.4 |
| 20260510022032 | 42 | 347 | 3.5 | 5.2 | 0.00 | 0.00 | 0.00 | 90 | 1016.4 |
| 20260510021545 | 42 | 322 | 2.6 | 6.1 | 0.00 | 0.00 | 0.00 | 90 | 1016.4 |
| 20260510021033 | 42 | 340 | 2.6 | 6.1 | 0.00 | 0.00 | 0.00 | 89 | 1016.6 |
| 20260510020532 | 42 | 348 | 3.5 | 6.1 | 0.00 | 0.00 | 0.00 | 89 | 1016.5 |
| 20260510020046 | 42 | 355 | 2.6 | 4.3 | 0.00 | 0.00 | 0.00 | 89 | 1016.6 |
| 20260510015533 | 42 | 321 | 2.6 | 4.3 | 0.00 | 0.00 | 0.00 | 89 | 1016.5 |
| 20260510015036 | 42 | 336 | 2.6 | 4.3 | 0.00 | 0.00 | 0.00 | 89 | 1016.6 |
| 20260510014541 | 42 | 338 | 1.7 | 4.3 | 0.00 | 0.00 | 0.00 | 89 | 1016.5 |
| 20260510014034 | 42 | 345 | 1.7 | 1.7 | 0.00 | 0.00 | 0.00 | 88 | 1016.6 |
| 20260510013533 | 42 | 357 | 0.9 | 1.7 | 0.00 | 0.00 | 0.00 | 88 | 1016.7 |
| 20260510013041 | 42 | 5 | 0.0 | 0.9 | 0.00 | 0.00 | 0.00 | 87 | 1016.8 |
| 20260510012533 | 42 | 0 | 0.0 | 0.9 | 0.00 | 0.00 | 0.00 | 86 | 1016.7 |
| 20260510012034 | 43 | 0 | 0.0 | 0.9 | 0.00 | 0.00 | 0.00 | 85 | 1016.8 |
| 20260510011538 | 43 | 0 | 0.0 | 4.3 | 0.00 | 0.00 | 0.00 | 85 | 1016.7 |
| 20260510011032 | 43 | 0 | 0.9 | 4.3 | 0.00 | 0.00 | 0.00 | 84 | 1016.8 |
| 20260510010532 | 43 | 41 | 0.0 | 5.2 | 0.00 | 0.00 | 0.00 | 83 | 1016.8 |
| 20260510010038 | 44 | 78 | 0.9 | 5.2 | 0.00 | 0.00 | 0.00 | 82 | 1016.8 |
| 20260510005533 | 44 | 75 | 0.0 | 5.2 | 0.00 | 0.00 | 0.00 | 80 | 1017.0 |
| 20260510005032 | 44 | 356 | 0.9 | 5.2 | 0.00 | 0.00 | 0.00 | 80 | 1017.0 |
| 20260510004537 | 44 | 330 | 0.0 | 3.5 | 0.00 | 0.00 | 0.00 | 80 | 1016.9 |
| 20260510004040 | 43 | 0 | 0.0 | 3.5 | 0.00 | 0.00 | 0.00 | 81 | 1017.1 |
| 20260510003536 | 43 | 31 | 0.0 | 2.6 | 0.00 | 0.00 | 0.00 | 82 | 1017.1 |
| 20260510003049 | 42 | 0 | 0.9 | 5.2 | 0.00 | 0.00 | 0.00 | 83 | 1017.1 |
| 20260510002536 | 42 | 346 | 1.7 | 5.2 | 0.00 | 0.00 | 0.00 | 83 | 1017.1 |
| 20260510002036 | 41 | 343 | 2.6 | 5.2 | 0.00 | 0.00 | 0.00 | 84 | 1017.2 |
| 20260510001552 | 41 | 0 | 0.0 | 0.9 | 0.00 | 0.00 | 0.00 | 84 | 1017.3 |
| 20260510001035 | 41 | 0 | 0.0 | 0.9 | 0.00 | 0.00 | 0.00 | 85 | 1017.3 |
| 20260510000535 | 41 | 0 | 0.0 | 1.7 | 0.00 | 0.00 | 0.00 | 85 | 1017.4 |
| 20260510000044 | 41 | 0 | 0.0 | 1.7 | 0.00 | 0.00 | 0.00 | 85 | 1017.4 |
| 20260509235535 | 41 | 0 | 0.0 | 0.9 | 0.00 | 0.00 | 0.00 | 85 | 1017.6 |
| 20260509235035 | 41 | 0 | 0.0 | 0.9 | 0.00 | 0.00 | 0.00 | 84 | 1017.6 |
| 20260509234547 | 41 | 0 | 0.0 | 0.9 | 0.00 | 0.00 | 0.00 | 85 | 1017.6 |
| 20260509234035 | 41 | 0 | 0.0 | 0.9 | 0.00 | 0.00 | 0.00 | 85 | 1017.6 |
| 20260509233535 | 40 | 0 | 0.0 | 0.0 | 0.00 | 0.00 | 0.00 | 85 | 1017.6 |
| 20260509233052 | 40 | 0 | 0.0 | 0.9 | 0.00 | 0.00 | 0.00 | 85 | 1017.7 |
| 20260509232535 | 40 | 0 | 0.0 | 0.9 | 0.00 | 0.00 | 0.00 | 85 | 1017.7 |
| 20260509232035 | 40 | 0 | 0.0 | 0.9 | 0.00 | 0.00 | 0.00 | 85 | 1017.8 |
| 20260509231546 | 40 | 96 | 0.0 | 0.0 | 0.00 | 0.00 | 0.00 | 85 | 1017.7 |
| 20260509231034 | 40 | 0 | 0.0 | 0.0 | 0.00 | 0.00 | 0.00 | 84 | 1017.8 |
| 20260509230534 | 40 | 0 | 0.0 | 0.0 | 0.00 | 0.00 | 0.00 | 83 | 1017.8 |
| 20260509230045 | 40 | 0 | 0.0 | 0.0 | 0.00 | 0.00 | 0.00 | 83 | 1017.9 |
| 20260509225536 | 40 | 0 | 0.0 | 0.0 | 0.00 | 0.00 | 0.00 | 82 | 1017.9 |
| 20260509225038 | 40 | 0 | 0.0 | 0.0 | 0.00 | 0.00 | 0.00 | 82 | 1017.9 |